Location: Trebic
(49.2170°N, 15.8830°E)
Time: 05:29:08
(UTC+02:00)

Transit 4A - Pass Details

Date: 26 August 2019
Orbit: 866 x 978 km, 66.8° (Epoch: 14 October)

Event Time Altitude Azimuth Distance (km) Brightness Sun altitude
Rises 20:31:42 0° 262° (W) 3,676 12.1 -6.8°
Reaches altitude 10° 20:34:45 10° 275° (W) 2,729 11.7 -7.3°
Maximum altitude 20:40:00 26° 330° (NNW) 1,817 10.2 -8.1°
Drops below altitude 10° 20:45:13 10° 26° (NNE) 2,704 10.4 -8.8°
Sets 20:48:15 0° 39° (NE) 3,637 10.9 -9.3°
